Location: Palomar Mountain Lodge
(33.3110°N, 116.8495°W)
Time: 01:32:31
(UTC-08:00)

YAOGAN 6 - Pass Details

Date: 19 May 2017
Orbit: 467 x 509 km, 97.1° (Epoch: 24 November)

Event Time Altitude Azimuth Distance (km) Brightness Sun altitude
Exits shadow 21:51:08 32° 239° (WSW) 822 3.8 -22.6°
Maximum altitude 21:51:44 35° 262° (W) 778 3.8 -22.7°
Drops below altitude 10° 21:54:57 10° 329° (NNW) 1,624 6.3 -23.2°
Sets 21:57:07 0° 339° (NNW) 2,503 7.3 -23.5°
